GFSGL_700_spd_132.txt.gz
Wind_Speed
8 10 10 14 13 12 10 9 9 10 12 10 13 12 12 13 14 17 21 20 19 19 19 19 22 19 20 19 18 18 21 21 24 27 29 31 34 37 36 35 34 34 35
13 7 7 5 11 16 11 12 10 5 8 7 6 8 8 9 10 12 12 13 17 19 20 22 20 21 22 21 21 24 25 27 29 30 32 34 33 33 31 30 31 33 34
8 5 4 7 5 3 7 2 4 5 6 6 9 11 12 13 14 16 17 17 18 22 23 24 24 25 24 28 28 28 30 31 31 31 30 29 27 28 28 29 29 29 30
11 9 11 10 7 6 5 4 2 4 5 7 9 11 14 18 15 15 20 21 21 24 23 22 25 23 25 28 29 30 31 30 27 26 24 24 25 26 26 24 22 24 23
9 7 6 5 5 4 2 1 4 5 8 9 11 12 14 16 18 19 19 19 19 20 22 24 25 25 27 27 28 28 27 26 24 22 22 23 24 24 22 19 18 19 22
4 5 4 4 4 2 1 2 4 6 9 11 12 14 16 16 17 19 20 19 20 22 22 23 23 24 25 25 26 24 23 22 21 21 22 22 20 19 17 18 21 22 20
4 5 5 5 4 1 3 4 5 6 7 8 9 11 12 12 14 15 16 17 18 19 20 21 22 22 22 23 21 19 20 22 21 19 19 18 16 16 17 19 22 25 27
4 4 4 4 3 2 3 5 6 7 8 8 8 8 9 10 11 13 15 15 15 16 17 19 20 20 20 19 19 19 20 19 18 18 15 14 15 17 19 20 23 25 27
5 3 2 1 1 3 5 6 7 7 8 8 9 10 10 11 12 13 14 15 15 16 17 18 18 19 20 19 17 17 17 17 17 14 13 13 15 17 19 20 23 26 28
5 5 4 2 2 4 6 8 9 10 12 12 12 13 13 13 13 13 14 16 17 17 17 17 18 18 17 15 14 16 16 15 15 14 14 14 15 15 16 18 21 24 27
8 7 6 5 6 6 8 9 10 12 12 13 14 14 15 15 14 15 16 17 17 18 18 17 16 15 15 15 16 16 14 16 14 13 14 14 14 12 15 19 22 25 26
13 11 10 10 10 10 10 11 11 12 13 14 14 15 16 15 15 15 15 16 17 18 17 16 16 16 16 16 16 16 14 15 15 14 15 15 13 13 17 20 23 26 28
16 15 14 12 12 12 12 12 12 13 14 15 15 16 17 17 17 17 16 16 14 15 16 16 16 17 17 17 16 16 16 16 16 16 16 15 13 15 18 21 23 25 27
18 16 15 14 14 13 13 12 12 13 13 15 16 17 18 19 19 20 19 19 17 16 16 16 17 17 19 18 18 18 18 18 18 18 17 16 16 18 20 21 23 25 25
17 17 16 15 15 15 15 14 13 13 13 15 16 18 19 20 20 21 21 20 20 19 18 17 17 18 19 19 19 19 19 19 20 20 19 18 19 20 22 22 25 27 28
17 17 16 17 17 17 16 15 15 14 14 15 17 19 20 20 21 21 21 20 20 19 18 18 18 19 20 20 20 20 20 21 21 21 21 20 21 22 23 23 27 29 30
18 19 19 19 19 19 18 16 16 14 14 17 18 20 21 21 21 21 22 21 21 20 19 19 19 19 20 20 20 20 21 22 22 22 21 21 22 23 24 26 28 30 29
22 23 23 22 22 21 19 19 18 16 17 20 20 22 22 22 22 22 22 22 21 20 19 19 19 19 19 20 20 21 21 22 22 23 23 23 25 26 27 28 29 29 28
25 25 24 23 24 23 22 21 20 20 21 24 24 21 22 22 22 22 23 22 21 20 20 19 19 19 19 19 19 20 20 20 20 21 22 24 26 27 27 28 27 25 28
27 27 26 25 26 25 24 23 23 24 23 25 21 20 22 22 22 22 22 22 21 20 20 20 19 19 19 18 18 18 18 18 19 20 21 23 25 25 23 22 24 25 25
27 27 27 26 26 26 25 25 26 25 25 26 21 20 22 22 22 22 22 21 21 20 20 20 19 18 18 17 16 16 17 17 18 19 20 20 19 20 22 24 24 25 25
29 29 29 28 25 25 26 26 28 26 27 26 18 19 21 21 21 22 21 20 20 20 20 19 19 18 18 16 15 15 16 16 16 17 17 18 20 22 23 23 24 24 24
30 30 29 28 26 28 30 29 28 27 28 21 15 20 21 20 21 21 20 20 19 19 19 18 18 18 16 15 14 14 14 14 14 14 17 19 20 21 22 22 22 21 21
29 29 29 28 29 31 30 30 28 26 25 16 15 19 19 19 20 19 18 18 18 18 17 17 17 16 15 14 13 13 13 13 14 17 18 19 20 21 21 21 20 19 19
31 29 28 27 32 31 30 30 25 26 19 11 17 17 18 18 17 17 17 17 17 17 16 16 15 14 13 12 11 12 13 14 15 17 18 19 19 19 19 19 18 18 19
27 27 28 29 29 28 28 24 24 21 10 13 15 16 16 16 16 16 15 15 16 15 14 13 13 12 11 10 10 11 12 13 15 16 18 18 18 18 19 19 18 18 19

GFSGL_700_spd_135.txt.gz
Wind_Speed
9 10 10 16 11 7 8 10 13 14 14 14 17 13 20 15 18 17 18 21 21 22 22 23 22 23 25 25 26 24 21 21 21 20 24 27 32 32 34 37 33 31 30
8 10 14 13 14 12 10 6 6 8 7 7 10 11 11 11 10 11 12 15 15 15 16 18 21 24 24 24 24 25 22 21 22 28 31 32 35 36 34 32 30 30 30
8 8 12 12 10 10 7 5 3 5 8 5 7 8 9 10 10 10 12 13 13 16 19 21 22 25 23 27 24 24 28 35 33 31 33 36 35 32 29 28 29 29 30
16 14 12 11 12 11 11 11 8 8 5 4 7 10 11 12 14 17 16 17 20 23 24 23 26 29 31 33 35 36 34 29 30 32 32 30 30 29 28 27 26 26 24
11 11 11 11 10 10 9 8 7 7 5 6 7 9 11 12 16 16 17 22 24 24 25 25 27 30 28 30 31 31 32 31 29 28 27 26 27 27 27 25 22 19 21
9 10 9 7 7 8 7 6 5 2 3 7 9 10 12 14 16 19 20 21 23 23 23 24 25 26 28 28 29 28 29 28 26 24 24 25 26 25 22 20 18 19 21
9 10 9 8 7 6 4 5 5 5 4 5 6 7 9 11 12 16 17 18 19 20 21 22 23 24 25 26 25 25 26 25 23 23 24 24 22 20 17 18 19 19 21
9 9 8 7 5 5 5 5 4 3 2 3 4 5 7 8 10 12 14 15 16 17 18 19 21 22 23 24 23 23 24 24 23 21 20 20 19 17 16 18 18 16 17
9 9 7 6 5 5 5 5 5 6 6 7 7 8 8 9 9 11 12 13 14 14 15 17 18 19 21 21 21 22 21 19 19 19 18 17 17 17 17 18 16 15 16
8 7 6 4 3 2 2 2 3 4 5 6 7 8 8 9 10 11 12 13 13 14 15 16 17 18 18 17 16 17 17 18 18 17 17 17 17 18 18 16 16 17 19
8 7 5 4 3 2 3 4 6 7 8 9 10 10 10 11 11 12 13 13 14 15 15 16 16 16 15 15 17 16 17 17 16 17 17 17 18 19 18 16 16 18 20
10 9 8 7 7 7 8 8 9 9 10 11 12 13 13 14 14 14 15 16 16 16 16 16 15 15 15 16 17 18 16 17 17 18 18 18 19 19 18 17 18 20 22
14 13 13 12 12 12 12 12 12 12 12 12 13 14 15 16 16 16 16 16 16 17 17 18 17 16 15 17 18 18 18 18 19 19 19 19 19 19 18 18 20 21 23
18 17 16 15 15 14 14 14 14 14 13 13 13 14 17 18 18 18 17 17 17 16 17 17 18 17 17 17 19 19 19 18 19 19 20 20 20 19 20 20 22 22 22
19 18 17 16 15 15 15 15 15 15 15 14 14 15 18 19 19 19 19 18 18 18 17 17 17 17 17 17 18 19 19 19 19 20 20 20 20 21 21 23 24 24 25
19 18 17 17 16 15 15 15 16 16 16 15 14 17 20 21 21 21 21 20 20 20 19 18 17 17 17 17 18 19 20 20 20 20 20 21 22 22 22 22 24 26 28
19 19 19 18 18 17 17 17 18 17 17 17 16 19 22 23 23 23 22 21 21 21 20 19 18 18 17 17 17 18 18 19 20 20 21 22 22 22 22 24 26 28 28
21 22 22 21 21 21 20 20 20 19 20 19 18 20 23 23 22 22 21 21 22 20 20 19 18 18 17 17 16 16 17 18 19 20 21 20 20 21 22 24 26 27 27
24 24 24 23 23 24 24 22 21 21 22 21 20 21 24 22 22 22 21 21 21 20 19 19 18 18 17 17 16 16 16 16 17 17 16 16 18 19 21 23 23 22 23
26 26 26 27 28 27 26 23 22 24 24 23 22 23 24 22 20 21 21 21 20 19 19 18 18 17 17 16 15 14 14 14 14 14 14 15 16 18 18 20 22 22 23
27 27 27 28 29 27 26 25 24 26 26 25 24 23 24 20 19 20 20 19 19 19 18 18 17 17 16 16 15 13 12 12 12 12 12 13 14 16 19 21 22 22 23
29 29 28 28 28 28 27 27 26 27 28 26 24 24 24 17 19 19 19 19 18 18 18 18 17 16 16 15 14 12 11 11 11 10 10 11 15 18 21 22 22 22 21
28 28 28 30 30 29 29 29 29 31 30 29 24 25 23 14 18 19 19 18 18 18 18 17 17 16 15 15 13 11 10 10 10 9 11 14 17 19 20 21 20 20 19
28 27 27 29 30 30 28 29 31 33 30 28 21 27 15 13 18 18 17 17 17 17 17 16 15 15 14 13 11 9 9 9 9 11 13 15 17 18 18 18 18 18 17
25 25 25 28 29 29 29 31 33 31 27 20 23 18 8 16 17 17 16 16 16 16 15 14 14 13 13 11 10 8 8 8 10 11 13 15 16 16 16 16 16 15 16
23 24 24 24 25 27 29 30 28 23 18 18 19 8 13 15 15 15 15 15 14 14 14 13 12 11 10 9 8 8 8 10 11 13 14 15 16 16 16 17 17 17 17

GFSGL_700_spd_138.txt.gz
Wind_Speed
4 8 12 14 13 11 15 13 11 10 11 18 20 21 24 24 30 27 25 27 30 32 35 31 28 26 27 27 26 24 26 24 24 26 27 24 24 29 35 37 34 37 38
6 5 12 15 12 13 13 12 8 5 9 14 18 17 15 15 21 20 19 19 22 24 23 23 21 21 21 22 24 25 25 26 26 28 27 30 35 34 35 37 37 34 31
6 10 11 13 16 15 15 16 15 14 15 12 12 11 8 9 13 13 13 14 13 13 15 18 21 22 22 22 24 26 26 27 25 33 37 39 37 35 37 35 31 30 30
6 11 12 15 13 12 11 11 11 6 9 8 7 9 10 11 12 14 14 16 16 18 19 20 22 21 22 24 27 29 30 34 33 35 34 35 36 34 32 28 28 28 28
11 12 14 15 14 12 11 9 8 8 6 7 8 8 10 12 14 15 17 18 19 20 23 26 27 27 29 32 31 32 30 33 33 34 35 34 33 30 27 26 25 26 26
12 12 11 11 9 7 6 5 3 1 4 7 8 9 10 12 13 15 16 17 21 25 26 26 26 26 26 27 28 29 30 31 31 30 31 29 27 26 25 25 23 22 23
11 12 12 12 10 8 6 5 4 4 4 5 5 6 7 9 10 13 15 17 19 21 22 23 24 25 26 25 24 27 28 27 27 26 25 25 25 23 22 21 20 21 22
12 11 10 9 9 8 7 6 5 3 2 1 1 3 5 7 8 10 13 15 17 19 20 21 22 23 24 24 24 24 24 23 22 23 23 22 20 20 18 19 19 20 21
13 12 11 10 8 8 7 5 3 2 1 1 2 3 5 6 7 9 11 13 14 16 18 20 22 23 23 22 22 22 22 22 19 18 19 19 19 17 18 19 19 18 18
13 13 12 11 8 6 5 3 1 2 3 4 5 6 6 7 9 10 11 12 13 14 16 17 19 21 21 20 20 20 18 18 18 18 18 17 18 17 17 18 19 19 19
14 13 12 10 8 6 4 3 2 2 3 4 5 6 8 9 10 11 12 13 14 15 15 16 18 18 19 18 18 16 16 18 18 18 17 17 17 17 17 18 20 20 21
14 13 12 10 9 7 6 5 5 5 6 6 7 8 9 9 10 12 13 14 15 15 15 17 17 18 18 18 17 17 17 18 18 18 18 19 19 19 19 19 20 22 22
13 12 12 12 11 10 9 8 8 8 9 11 11 11 12 13 15 15 15 16 16 17 17 17 18 18 17 18 18 18 17 19 20 20 20 20 21 21 21 21 21 22 22
16 15 14 14 13 13 12 12 11 11 12 13 13 13 13 14 18 18 17 17 17 17 17 17 18 17 17 18 19 19 19 19 20 21 20 21 22 22 22 21 21 21 23
18 18 17 16 15 15 15 14 14 14 14 15 15 15 15 16 20 20 20 19 19 19 19 18 18 18 17 17 18 19 20 21 21 21 20 20 21 22 22 21 21 21 22
19 19 18 17 18 18 17 16 16 16 16 17 18 17 16 17 20 21 20 19 19 19 19 19 18 17 17 18 18 19 20 21 21 20 20 20 20 20 21 21 21 21 23
19 20 20 20 20 19 19 19 20 19 19 19 19 19 18 19 20 22 20 19 19 20 19 19 18 17 17 17 18 18 18 19 19 18 19 19 19 20 19 19 20 22 23
20 21 22 22 22 22 22 23 23 22 22 21 20 20 21 21 22 23 22 22 20 20 21 20 18 18 18 17 17 17 17 17 17 16 16 16 16 15 15 17 19 21 21
22 22 23 24 25 25 26 26 26 25 24 23 22 22 24 23 23 24 23 22 22 22 22 21 19 18 18 17 17 17 17 16 15 14 14 13 13 13 14 16 16 17 20
24 25 26 26 27 28 28 28 27 26 26 24 26 26 25 23 25 26 22 21 21 22 22 21 20 19 18 17 17 16 16 15 13 13 12 12 12 12 12 14 17 19 20
26 27 27 28 28 28 28 27 27 28 28 29 31 29 30 24 24 26 18 19 21 22 21 21 20 19 18 18 17 16 14 13 12 12 11 10 10 10 13 16 19 19 19
26 28 28 28 28 28 28 26 29 29 30 31 34 34 32 26 23 24 15 17 21 21 21 20 19 18 17 17 16 15 13 12 11 10 9 9 10 12 15 17 18 18 17
23 27 27 29 30 30 30 30 29 31 32 33 36 36 31 22 24 17 13 19 20 20 20 19 19 18 17 16 14 13 12 11 11 10 10 10 12 14 16 16 16 16 16
24 26 27 28 29 30 30 31 31 32 33 35 36 31 25 20 20 12 16 19 18 18 18 18 18 17 15 14 12 11 10 10 11 11 10 11 12 14 15 15 15 16 15
23 24 24 25 25 27 28 30 31 32 33 35 27 23 19 19 13 13 16 17 17 17 17 17 16 15 14 12 11 10 9 10 10 10 11 12 13 14 15 15 15 16 16
20 19 19 20 21 22 22 24 27 27 28 21 18 16 17 13 11 14 15 15 15 16 16 16 15 13 12 11 10 10 10 10 11 13 13 14 15 16 16 16 17 18 18

GFSGL_700_spd_141.txt.gz
Wind_Speed
3 8 12 11 12 13 12 15 15 15 6 9 13 14 17 26 21 27 26 27 27 33 37 39 42 41 38 36 31 26 22 22 24 27 27 25 26 26 24 30 36 40 37
3 10 11 10 11 11 13 11 12 11 10 6 18 20 18 25 18 20 24 29 29 31 30 30 31 34 32 24 20 20 22 21 23 27 28 28 25 31 35 38 35 33 34
3 6 12 7 5 8 8 12 12 12 11 10 11 15 15 17 24 20 20 24 23 20 20 20 20 20 21 22 23 22 22 25 26 29 27 30 35 36 35 34 35 33 31
4 5 9 8 7 10 9 6 4 5 6 5 5 7 8 10 11 14 15 15 16 17 18 19 20 22 22 23 22 22 24 27 32 33 33 34 34 34 33 33 31 29 27
6 7 7 9 9 7 9 7 8 5 4 2 3 4 8 10 11 13 15 17 19 19 19 19 20 23 24 26 27 29 30 30 29 30 31 32 33 32 29 27 26 26 26
11 11 12 13 10 8 9 9 7 5 4 5 5 7 9 11 11 13 15 16 19 21 18 20 25 28 28 27 28 28 28 29 29 29 30 29 29 27 23 24 24 24 23
13 14 13 11 10 9 7 6 5 3 1 2 4 6 7 7 8 11 13 14 16 18 21 22 23 24 25 25 25 26 26 27 27 27 26 25 24 24 23 22 22 22 21
11 11 12 11 11 10 8 5 3 1 0 2 3 4 5 5 6 8 10 13 15 17 19 21 22 22 21 23 23 24 25 25 24 25 24 23 22 21 20 20 19 20 20
12 12 12 11 9 7 5 4 3 1 0 1 3 4 5 5 7 8 9 11 12 15 17 19 21 22 19 22 23 24 25 24 20 20 19 20 19 19 19 18 18 19 20
14 13 12 11 10 9 8 7 5 3 2 1 2 3 5 6 7 8 10 11 12 13 15 17 19 20 19 20 22 22 22 22 20 18 18 19 19 18 18 19 19 19 20
15 14 13 12 10 8 6 4 3 3 3 4 5 5 6 6 7 9 11 13 13 14 15 16 17 18 19 20 21 21 21 21 20 20 20 18 18 19 19 20 20 20 21
16 15 13 11 9 8 7 7 7 7 7 7 7 6 6 7 8 11 13 15 15 16 17 18 18 19 19 20 20 19 19 20 21 21 20 19 20 20 20 20 20 21 22
16 15 15 15 14 13 13 12 11 10 8 8 8 8 9 9 9 12 15 16 17 17 18 19 19 19 20 20 19 19 19 20 21 21 22 21 21 21 21 21 21 21 22
17 17 17 16 15 14 13 12 11 10 10 10 11 12 12 12 12 14 17 17 18 19 19 19 20 20 20 20 20 20 19 20 20 22 22 22 22 22 22 21 21 22 22
17 17 17 17 17 16 14 13 14 13 12 12 13 14 15 15 15 16 19 20 20 20 21 21 22 22 22 21 20 20 20 20 21 21 22 22 22 22 22 22 21 21 22
15 15 15 15 16 16 17 17 16 15 15 15 15 16 17 17 18 19 20 22 22 22 22 22 23 22 22 22 21 20 19 19 20 20 20 20 21 21 21 21 21 21 21
14 15 16 17 17 18 18 19 19 19 19 18 18 18 19 19 20 20 21 22 23 23 23 23 23 22 21 21 21 20 19 19 19 18 18 19 19 19 19 19 18 18 18
15 17 18 18 20 21 21 21 22 23 23 23 22 21 21 21 21 23 23 23 23 23 23 22 23 22 21 21 21 20 19 18 18 17 17 16 16 16 15 14 15 16 16
17 18 19 20 22 21 23 25 25 24 25 24 24 24 24 24 27 29 25 24 26 23 21 22 22 22 22 21 21 20 18 17 16 16 15 14 14 13 12 13 13 14 16
17 20 21 22 24 24 25 26 27 26 26 24 24 27 28 31 34 33 29 26 26 23 20 22 22 21 21 21 21 20 19 17 16 14 13 13 12 12 11 11 13 15 17
16 20 21 24 25 26 27 28 28 28 27 24 30 29 32 34 37 34 28 24 25 19 20 22 22 22 21 20 20 20 19 17 15 13 13 13 12 10 10 13 15 17 17
17 18 21 25 27 27 28 28 29 28 28 30 30 29 34 34 36 28 24 23 22 18 21 21 21 21 20 19 19 19 17 15 14 12 12 11 10 11 12 14 16 16 16
18 20 21 25 28 29 30 30 30 29 30 32 31 33 33 34 28 24 21 22 18 18 20 19 20 19 19 18 18 17 15 13 12 11 11 11 11 13 14 15 15 15 15
20 22 23 25 26 27 28 30 30 30 32 31 32 30 32 25 22 19 20 18 16 18 18 18 18 18 17 16 16 15 13 12 11 11 11 12 13 14 14 15 15 16 16
20 23 25 24 23 23 24 25 26 27 29 30 28 26 23 20 16 17 16 15 15 16 16 16 16 16 16 15 13 12 11 11 11 11 12 13 14 15 16 17 17 17 17
22 26 24 22 20 20 20 21 21 21 20 19 21 23 19 14 14 12 13 13 14 14 14 15 15 14 14 13 12 12 12 12 12 13 14 15 16 17 19 19 20 20 20

GFSGL_700_spd_144.txt.gz
Wind_Speed
6 10 10 7 4 12 6 13 11 10 11 6 14 24 21 23 20 21 27 26 32 33 36 35 31 34 37 38 42 43 43 36 34 24 23 24 24 25 25 23 24 32 35
3 5 8 7 5 7 10 8 10 10 7 6 16 11 17 19 21 23 22 31 25 18 19 22 24 26 27 29 31 29 25 22 23 25 25 25 24 23 23 28 33 32 30
4 7 10 8 9 8 11 11 10 5 8 8 9 11 13 12 13 24 20 19 22 26 23 24 23 24 22 19 19 20 23 25 26 25 26 27 28 30 32 31 30 30 28
6 12 12 11 10 11 10 8 7 8 7 6 9 8 7 9 14 17 16 18 17 17 18 18 18 17 19 21 24 24 25 24 24 26 29 33 31 29 30 30 29 28 26
5 8 9 9 9 5 9 8 4 5 7 4 6 6 6 7 8 10 13 15 16 16 18 19 19 19 20 22 26 25 25 25 26 28 29 29 30 30 29 27 27 24 24
9 8 9 8 5 5 7 5 5 4 3 3 3 4 3 4 6 8 10 13 14 17 18 20 24 20 22 24 24 23 24 25 26 28 29 28 29 28 26 26 24 23 21
9 10 11 10 8 8 8 7 6 5 4 4 3 2 1 1 4 6 8 10 11 12 14 16 18 20 21 21 22 23 24 25 25 26 27 26 27 25 23 22 22 19 18
10 9 8 9 9 8 7 7 6 5 4 5 4 4 3 2 3 4 5 7 8 10 12 14 15 17 18 19 20 22 24 23 23 25 25 24 23 22 19 19 20 19 19
13 13 12 10 8 6 5 5 5 4 4 4 3 2 2 3 4 5 6 7 9 10 12 14 16 16 18 21 21 22 23 20 20 22 21 21 20 20 20 19 18 18 19
12 11 10 8 7 6 6 6 4 4 3 2 2 2 3 4 5 5 7 9 11 12 13 15 16 16 17 19 21 21 22 21 20 19 18 19 19 19 19 19 18 18 18
12 13 13 13 11 10 8 7 5 4 2 1 2 3 4 5 6 6 8 11 13 14 14 14 16 17 17 19 20 20 21 21 21 19 18 17 18 18 18 18 19 20 20
13 13 13 11 10 8 6 4 5 4 5 5 6 6 7 7 8 8 10 13 15 16 16 17 18 19 20 21 21 22 22 22 22 21 19 19 19 18 18 19 20 20 21
15 14 13 11 10 10 9 9 9 9 8 8 8 8 7 9 10 11 12 15 18 19 20 19 20 20 21 21 22 22 22 21 21 22 21 20 19 20 20 19 19 20 21
16 16 15 14 13 13 12 12 12 11 10 10 9 9 10 10 12 13 14 16 18 19 20 20 21 21 22 22 22 22 21 21 21 21 20 20 20 19 19 19 19 20 20
16 16 15 15 14 13 13 13 13 12 11 11 12 13 13 14 14 15 16 17 19 20 20 21 21 22 23 23 23 22 22 21 21 21 21 20 20 19 19 19 19 20 20
13 13 13 12 13 13 13 13 14 13 14 14 15 15 16 17 18 18 18 20 22 23 24 24 23 23 23 23 22 21 20 20 20 20 20 20 19 18 18 18 18 19 19
11 12 12 13 13 13 13 13 15 16 17 17 18 17 17 18 19 21 21 25 28 26 25 26 24 24 24 24 22 21 20 19 19 19 19 19 18 17 17 17 17 16 15
10 11 11 12 13 14 15 15 17 18 19 19 19 19 18 19 20 23 27 31 31 29 28 25 25 23 24 23 22 21 20 19 18 18 18 17 16 15 14 14 13 13 14
9 8 9 12 13 15 17 18 19 20 20 21 21 20 20 20 28 29 31 32 29 26 25 24 23 22 23 22 21 20 19 19 18 17 16 15 14 13 13 13 12 12 13
3 5 8 11 16 17 19 21 22 21 22 21 21 21 22 26 32 29 30 28 25 23 22 22 20 21 22 21 20 19 19 19 18 17 15 14 13 12 12 11 10 12 15
6 6 8 12 16 19 21 22 23 23 23 22 21 22 27 30 29 29 28 23 23 19 21 21 19 21 21 20 20 19 19 18 17 15 13 12 12 11 10 10 12 14 16
9 10 11 14 17 19 21 23 24 24 23 22 22 25 30 29 28 27 24 21 18 18 19 17 19 19 19 19 19 18 17 16 14 12 11 10 10 10 10 12 13 14 15
10 12 14 17 18 20 21 23 23 23 23 24 26 27 28 28 24 24 22 18 16 17 16 17 18 18 18 18 18 17 16 14 13 11 10 10 11 11 12 13 14 15 15
11 13 16 19 20 22 21 20 19 20 21 23 23 24 24 20 23 22 18 16 15 14 16 16 16 17 17 17 16 15 14 12 12 11 11 11 12 13 14 15 16 17 17
13 16 18 19 22 21 20 19 19 19 19 19 20 19 15 20 21 17 16 13 13 14 15 15 15 16 16 16 15 14 13 12 12 12 12 13 14 15 16 17 19 19 20
16 18 18 22 22 19 17 16 16 15 15 13 12 13 16 18 15 14 11 11 12 13 14 15 15 15 15 15 14 13 13 13 13 14 14 15 16 18 19 19 20 21 20

GFSGL_700_spd_147.txt.gz
Wind_Speed
7 10 12 8 4 6 5 11 14 20 15 17 22 31 24 27 24 25 25 24 24 24 26 25 25 29 29 34 38 40 39 37 38 39 37 31 24 26 28 26 24 21 23
5 7 10 8 5 4 6 6 14 21 14 11 16 19 21 21 19 22 23 23 23 25 27 32 27 23 24 26 28 30 32 31 28 24 23 25 27 26 26 26 24 28 31
3 6 8 10 11 11 11 16 10 8 5 7 13 16 18 18 17 27 21 18 18 27 28 23 27 27 27 23 23 22 21 24 24 25 26 27 26 27 25 29 30 26 27
4 12 11 11 10 7 7 8 8 10 8 11 11 13 11 16 12 15 18 20 20 19 22 24 21 20 19 19 20 22 24 26 27 28 27 26 28 29 28 26 26 26 27
9 11 12 15 14 13 12 10 12 11 9 8 11 10 11 11 12 14 14 13 15 16 14 15 19 21 22 22 22 24 25 29 27 26 27 27 26 26 25 24 25 25 24
13 15 15 12 9 10 11 8 10 12 10 10 10 10 10 11 11 13 15 16 17 18 18 20 23 20 21 26 26 26 27 27 25 25 24 25 25 24 24 24 23 22 21
10 11 12 11 10 11 10 9 9 8 8 7 7 7 7 7 7 7 7 8 9 11 14 16 17 18 19 20 22 23 23 24 23 22 24 24 24 23 23 22 21 20 18
11 11 11 10 10 9 8 8 8 8 8 8 7 7 6 5 4 2 1 2 4 6 8 10 12 14 16 18 19 20 20 21 22 23 23 24 23 22 20 18 18 18 18
11 11 11 12 12 12 11 10 9 9 9 8 7 6 5 5 4 3 2 3 5 7 8 10 12 14 16 17 19 19 19 20 22 22 24 24 23 21 19 18 17 18 19
13 13 13 12 11 11 10 9 8 7 6 5 5 5 4 4 3 4 4 6 8 10 11 12 13 15 17 18 20 21 20 22 22 23 21 22 21 21 20 20 18 18 18
15 14 13 12 11 11 10 9 7 5 3 2 2 2 3 4 3 4 5 7 8 10 11 13 14 16 18 19 19 19 20 21 21 21 20 20 20 20 20 19 18 19 19
15 14 13 12 11 9 7 4 2 1 1 3 4 5 5 6 6 7 8 9 10 12 13 14 15 15 17 18 20 21 21 22 22 21 20 20 19 19 19 19 19 19 20
14 14 13 12 10 7 5 3 2 3 5 5 6 6 7 7 7 8 9 11 12 13 14 15 15 16 17 18 19 21 21 20 20 20 20 19 19 19 20 19 19 19 20
15 13 12 12 10 9 7 7 7 7 7 7 7 8 9 8 9 10 11 13 14 16 19 19 20 20 20 20 21 22 22 22 20 19 18 18 18 18 18 18 19 18 18
17 15 14 13 12 12 11 11 10 9 9 10 10 9 10 10 11 12 13 14 15 18 22 23 22 21 21 21 20 21 21 21 21 20 19 18 16 16 17 17 17 17 17
16 14 13 13 13 13 12 13 12 11 11 11 11 11 11 11 12 13 14 17 18 23 24 25 23 22 21 20 21 20 21 20 20 19 18 17 16 15 16 16 16 15 15
15 14 12 11 12 11 11 12 12 13 13 13 13 12 13 13 13 13 16 27 27 25 22 22 21 21 22 20 21 21 20 19 19 18 18 17 15 15 14 14 14 13 13
12 10 10 10 10 9 10 12 13 14 15 15 14 14 14 15 16 16 25 29 26 21 21 21 19 20 20 20 21 21 20 19 18 17 17 17 16 14 13 12 12 12 12
10 8 7 8 9 9 11 12 13 14 15 15 15 14 15 17 18 23 27 23 19 20 21 20 19 20 19 18 20 20 19 20 19 18 17 16 15 14 12 12 11 11 10
13 10 8 7 7 9 10 11 12 13 14 15 15 15 16 20 25 26 22 20 20 20 20 17 18 19 16 19 19 19 20 20 19 18 16 15 13 12 11 11 10 9 11
10 7 4 4 6 8 9 10 12 13 14 14 13 17 21 23 24 21 20 21 19 19 15 16 16 15 18 19 19 19 19 19 18 16 14 13 11 10 10 9 9 10 12
9 6 4 7 10 11 11 11 12 13 13 13 13 16 17 18 18 20 18 19 18 15 15 15 15 17 18 18 18 18 18 17 16 14 12 11 10 10 10 10 11 12 12
7 3 4 8 11 12 11 12 12 12 12 12 14 15 15 17 17 16 18 17 15 15 13 14 16 17 17 17 16 16 15 14 13 12 11 10 10 10 11 12 13 14 14
7 3 7 9 11 11 12 13 12 11 11 11 12 13 14 13 14 17 16 14 14 12 13 14 15 16 16 16 15 15 15 13 13 12 12 12 12 13 14 15 15 16 17
5 5 9 10 11 13 13 9 8 8 8 8 9 10 10 11 13 15 12 12 11 12 13 14 15 15 15 15 15 14 14 14 13 13 13 14 14 15 16 16 17 19 19
4 8 10 11 12 11 6 5 6 6 7 8 8 8 8 9 11 10 9 9 10 12 13 14 14 14 14 13 13 13 14 14 15 15 15 16 16 17 17 17 17 18 19

GFSGL_700_spd_153.txt.gz
Wind_Speed
11 12 13 14 15 14 18 25 15 15 15 22 22 21 22 15 30 31 41 36 35 31 20 29 32 30 25 27 19 22 23 28 26 29 30 32 33 30 30 29 28 29 33
8 11 15 16 13 9 11 11 1 15 15 16 12 11 14 15 22 18 28 31 28 25 24 18 16 17 19 18 19 21 28 23 27 27 31 34 28 27 27 28 31 35 38
7 9 4 7 8 8 8 6 11 15 12 12 14 13 17 10 11 14 15 15 17 16 16 14 15 22 17 18 22 25 26 28 32 29 29 27 28 30 32 34 34 30 36
5 0 5 7 6 7 8 8 7 12 15 13 15 19 17 19 9 13 9 18 17 22 27 25 18 18 25 26 26 26 32 33 28 25 27 28 30 31 34 34 33 33 34
2 4 6 5 7 6 5 4 10 8 9 11 14 14 11 13 10 9 11 17 11 18 20 18 21 23 21 26 30 28 22 26 30 31 28 27 30 32 33 32 32 33 33
5 4 9 8 9 11 9 9 6 7 6 8 11 9 8 10 16 17 19 18 18 23 25 19 21 23 20 17 20 26 30 26 24 27 28 29 30 30 31 31 32 33 34
9 8 10 9 9 10 9 10 9 7 8 8 8 7 7 5 7 7 6 9 9 9 10 11 13 17 22 21 20 20 20 21 22 23 25 26 27 27 28 29 30 31 31
12 12 11 9 11 10 10 10 9 9 9 9 8 8 7 7 6 6 6 7 7 8 7 8 9 11 12 14 16 17 19 20 21 22 23 25 26 27 27 27 28 28 27
15 15 13 13 13 12 12 11 10 11 10 10 9 8 7 6 5 4 4 3 2 1 3 5 7 9 11 13 15 17 18 20 21 22 22 24 25 25 25 25 25 25 25
18 17 16 15 14 13 12 12 12 12 12 12 11 10 8 8 6 5 4 2 1 1 3 6 8 9 12 14 15 17 19 20 22 23 23 24 24 27 25 25 24 24 24
20 20 19 17 15 14 13 13 14 12 11 11 11 9 7 7 6 4 2 0 2 5 7 10 12 15 16 18 19 20 21 23 24 25 26 25 25 25 24 23 23 23 23
21 21 20 19 17 17 15 13 11 11 9 7 6 6 5 3 1 0 2 4 6 8 10 13 16 18 20 21 22 21 22 24 24 26 27 27 27 27 27 25 23 22 22
22 21 20 20 19 16 14 11 8 6 5 4 3 2 1 1 2 4 6 7 9 11 12 16 22 24 25 25 24 23 24 24 25 25 26 26 25 25 25 24 23 22 22
23 22 21 21 19 17 13 10 7 5 4 3 2 4 4 4 5 6 8 10 11 12 14 24 25 25 25 24 24 23 23 23 24 24 24 24 24 24 23 22 22 22 21
25 23 22 21 19 17 15 13 11 8 6 5 5 5 6 6 7 8 10 11 12 14 24 28 23 22 24 24 24 23 23 22 23 24 24 23 23 22 21 20 20 20 19
26 24 22 20 19 17 15 11 7 6 6 5 5 6 6 6 7 9 11 12 16 22 25 22 22 23 23 22 20 21 21 22 22 22 22 22 21 21 20 19 19 18 17
25 21 19 17 17 14 11 9 8 8 6 5 5 5 6 7 8 8 11 18 21 21 19 20 23 22 20 18 18 20 21 21 22 22 22 22 21 21 20 19 17 16 16
26 23 19 17 15 13 11 11 10 8 7 6 6 6 7 7 7 12 15 14 15 16 18 21 21 19 16 17 18 19 20 21 21 22 22 22 21 20 19 18 17 16 15
25 23 21 19 17 16 14 11 9 7 7 7 7 7 6 6 9 12 12 13 15 16 17 20 19 16 18 17 18 19 20 20 20 21 20 19 18 17 16 14 14 13 12
26 23 21 19 18 15 12 10 8 8 8 8 8 7 6 7 9 14 13 13 14 17 19 17 17 17 17 18 19 19 19 19 19 19 18 17 16 15 14 13 12 11 11
26 24 22 20 17 15 13 11 10 9 10 9 9 8 8 9 11 14 14 14 16 17 17 17 15 15 17 17 18 19 19 18 18 17 16 15 14 14 13 13 13 14 13
27 24 21 18 16 14 12 12 11 10 10 10 9 9 10 11 13 15 15 14 16 16 16 14 14 16 17 18 18 17 17 17 16 16 15 15 15 15 15 15 15 15 15
28 25 21 18 16 14 12 11 11 10 10 10 10 10 11 14 15 16 13 13 15 15 14 14 15 16 17 16 16 16 15 15 15 15 15 16 16 16 16 16 17 18 18
28 23 18 15 13 14 12 10 9 10 10 11 11 11 14 15 14 12 10 11 13 13 14 15 15 15 15 14 14 14 14 14 14 15 15 16 17 18 18 18 18 18 19
26 21 16 13 13 11 10 9 10 12 11 11 10 10 12 11 10 8 8 10 11 13 14 15 14 13 13 13 13 13 13 14 15 15 16 17 18 18 18 18 18 19 19
25 21 15 12 9 8 9 10 11 12 10 8 8 9 10 10 8 6 6 8 11 12 13 13 12 12 12 12 12 12 13 14 15 16 17 18 18 19 19 19 20 21 22

GFSGL_700_spd_156.txt.gz
Wind_Speed
13 15 14 14 14 16 17 21 26 30 30 30 32 32 34 27 22 28 18 26 26 34 23 30 35 37 32 28 26 19 21 28 22 23 24 26 28 25 29 29 28 28 26
10 13 15 15 14 12 15 20 10 9 6 15 13 22 25 21 13 19 20 31 30 31 25 35 30 34 21 20 22 24 24 21 22 25 25 25 27 30 26 28 26 28 35
6 12 12 4 6 6 4 6 5 9 11 13 14 14 17 13 15 17 17 24 25 21 24 30 16 24 24 15 17 19 19 25 25 26 25 30 31 25 24 28 33 32 37
4 7 4 6 7 7 4 5 10 9 11 9 12 8 7 11 9 8 9 19 16 10 10 13 17 11 15 18 24 22 22 20 25 31 24 23 30 29 28 32 32 34 33
2 1 1 6 8 5 5 6 6 9 5 10 6 12 11 7 7 10 8 9 6 8 15 9 15 14 11 13 22 22 27 26 20 20 26 32 29 28 29 32 34 33 32
5 3 3 3 7 6 8 6 8 7 10 11 12 11 5 2 3 3 6 5 11 12 9 15 15 18 20 20 23 19 20 28 27 26 25 26 26 28 30 30 31 31 32
7 6 7 8 9 8 8 8 8 9 11 9 12 8 9 6 4 4 7 11 13 13 13 11 11 12 12 16 21 22 20 20 21 22 23 24 25 26 27 28 29 29 30
10 9 9 8 9 9 10 9 9 9 10 11 11 9 10 9 8 6 6 7 6 7 7 6 8 9 10 12 14 15 17 19 20 21 23 24 25 26 26 28 28 29 29
13 12 11 11 11 11 11 11 11 11 10 11 11 11 10 9 8 7 6 5 4 2 0 2 5 8 10 13 15 17 19 20 21 22 23 23 24 25 25 26 26 27 27
15 16 15 15 15 14 13 12 11 12 12 11 10 10 9 10 8 7 6 4 3 2 2 4 7 10 12 14 16 18 20 21 22 22 22 23 23 24 25 24 25 25 25
19 19 18 18 17 16 14 14 14 12 12 11 10 8 7 7 7 6 4 3 1 2 4 7 10 13 17 20 22 24 24 25 26 26 27 26 26 26 25 25 24 24 23
22 21 21 19 17 17 17 15 14 12 10 9 8 7 6 5 4 3 1 2 4 6 9 12 15 19 25 27 27 27 26 27 28 28 28 28 27 27 27 26 25 23 23
24 23 22 20 18 18 17 15 13 10 9 7 5 5 3 1 1 1 3 6 9 11 13 16 19 27 30 26 25 25 25 24 24 25 25 26 26 26 26 25 24 23 23
25 25 23 22 21 20 17 15 14 11 9 6 4 3 2 2 3 5 7 9 11 13 15 17 25 25 21 23 24 24 23 22 23 24 25 25 25 24 24 23 23 21 20
27 26 25 24 22 19 18 16 14 10 7 5 3 2 2 4 6 7 8 10 12 14 17 22 23 20 22 24 24 23 22 22 23 23 23 23 23 23 23 22 22 21 20
28 27 25 24 22 20 17 13 8 6 6 5 4 3 4 5 5 6 8 11 14 18 19 20 19 22 23 23 21 20 21 21 21 22 22 22 22 22 22 21 20 19 18
28 27 25 24 21 18 14 12 10 9 7 5 4 4 4 4 5 7 10 14 17 17 17 17 20 21 21 19 19 20 20 21 22 22 22 23 23 22 21 20 19 18 17
30 28 25 23 20 17 16 14 11 9 7 6 5 4 4 4 6 9 13 15 16 16 17 17 20 18 17 18 18 19 20 21 22 23 23 22 21 20 19 18 17 16 15
31 29 27 24 21 19 17 14 12 9 7 6 5 5 5 6 8 10 14 15 15 16 17 18 17 18 17 17 19 21 22 22 22 22 21 21 19 18 17 16 16 15 14
32 30 27 24 21 19 15 13 11 9 8 7 6 5 6 8 9 12 14 14 13 15 17 17 17 16 17 19 20 21 21 21 21 20 19 18 18 17 16 16 16 15 15
32 29 26 23 19 17 14 13 12 10 10 8 7 6 9 9 10 13 16 15 14 16 16 16 16 17 18 19 20 20 20 19 19 18 18 18 18 18 18 17 17 17 17
31 27 23 20 19 17 15 14 13 12 10 8 7 8 8 9 12 15 16 14 14 15 15 15 17 17 18 18 19 18 18 18 17 17 17 17 18 18 18 18 18 18 19
31 27 24 21 19 18 17 15 12 11 10 8 8 8 8 11 12 14 13 12 12 14 14 16 17 17 17 17 18 17 17 16 16 17 17 17 18 18 19 20 20 21 20
30 27 24 22 20 17 15 13 12 12 10 8 7 7 9 10 10 9 9 9 10 12 15 16 17 17 16 16 16 16 15 16 17 17 18 19 20 20 21 21 21 20 21
32 29 25 21 18 14 13 13 13 11 9 8 7 7 8 8 7 6 7 7 9 12 14 15 16 16 15 15 15 15 15 16 17 17 18 20 21 22 22 23 22 22 23
33 29 25 19 15 13 12 13 12 10 9 9 8 6 5 5 4 4 6 7 9 11 13 14 14 14 14 14 14 14 15 16 18 19 20 20 22 23 24 25 24 25 27

GFSGL_700_spd_159.txt.gz
Wind_Speed
13 14 13 14 15 17 17 19 20 23 29 31 33 31 29 26 22 19 16 16 22 15 25 31 39 26 24 28 28 18 21 22 27 34 30 28 25 21 22 24 26 26 26
10 11 12 13 17 16 14 15 20 21 20 16 19 22 32 30 24 20 21 24 16 16 27 38 21 22 25 20 25 18 20 21 23 21 29 27 24 22 25 25 26 27 27
7 8 10 8 6 8 4 1 2 2 5 12 10 5 11 12 11 11 12 13 11 22 26 30 24 18 28 21 24 21 20 24 20 20 22 21 25 29 25 26 26 33 34
7 6 4 2 6 8 2 2 5 6 12 11 13 15 14 10 12 9 8 11 19 19 16 17 17 22 15 9 11 17 16 16 20 19 22 29 26 22 24 30 30 33 35
7 4 2 6 8 4 5 4 5 8 12 11 10 12 11 14 13 8 8 14 10 7 8 5 4 11 17 16 16 13 16 19 19 19 20 21 25 29 30 29 28 30 31
7 4 4 6 8 5 9 5 6 9 10 16 13 9 10 10 13 10 8 10 7 5 2 11 16 10 8 6 9 12 17 20 20 27 26 25 24 23 24 25 27 28 29
8 6 7 8 10 10 9 8 6 12 15 12 11 8 12 12 10 7 5 6 6 9 3 4 9 6 9 9 12 17 19 20 19 20 20 20 21 22 23 24 25 27 28
10 9 10 9 9 9 9 8 10 10 11 15 12 12 9 11 9 9 9 7 6 6 5 4 2 4 6 8 11 13 14 16 17 19 20 21 22 22 23 25 26 27 28
12 12 11 11 11 11 11 10 11 12 12 12 11 10 10 8 9 10 10 9 8 7 5 2 0 3 6 9 13 15 17 18 19 20 21 22 22 24 24 25 25 25 26
14 14 13 14 13 13 13 13 12 13 14 15 13 13 12 12 12 12 11 9 7 5 2 3 5 6 8 12 17 19 20 21 20 20 21 21 22 21 21 22 23 24 24
16 17 16 17 16 15 14 15 16 15 15 14 14 13 12 12 10 9 7 5 3 1 1 3 6 9 14 22 22 20 20 20 21 21 22 22 22 23 23 23 22 22 22
18 19 19 19 18 18 18 17 17 16 14 13 13 11 11 10 8 5 3 2 2 4 6 9 11 14 22 23 20 20 21 21 21 21 21 21 22 22 23 23 23 23 21
21 22 23 22 21 20 19 18 15 14 14 12 11 10 8 7 5 3 1 2 4 7 9 12 16 21 21 19 20 21 22 22 21 21 22 23 24 24 23 23 22 21 21
22 24 25 24 23 23 21 20 17 14 11 10 9 7 5 4 3 0 3 5 8 10 12 15 19 19 18 21 22 22 21 20 21 23 24 24 24 24 24 23 23 22 21
24 27 27 26 25 23 22 19 15 11 9 8 6 4 3 2 1 3 5 7 9 12 15 16 17 18 21 22 21 19 19 20 21 22 23 24 24 24 24 23 22 21 19
26 28 28 27 26 23 18 13 10 10 9 6 4 3 2 1 2 3 5 8 12 14 15 17 18 20 21 20 19 20 19 20 21 22 22 23 23 23 22 20 19 18 18
27 28 28 28 25 21 16 13 10 9 7 5 4 4 3 3 2 3 6 12 13 13 15 17 19 20 19 19 18 19 20 21 22 22 22 21 21 20 19 19 18 18 17
29 28 27 26 24 20 17 15 12 10 9 7 6 5 3 2 3 4 9 12 14 14 15 17 17 17 16 16 18 19 20 21 21 21 21 20 20 19 18 18 17 17 17
31 31 29 27 24 22 19 16 14 12 9 7 6 5 3 3 3 6 9 11 13 13 15 16 16 15 16 18 18 19 20 20 20 20 20 19 19 19 18 18 18 18 18
33 32 30 28 26 23 19 17 14 11 10 9 7 4 4 4 4 6 8 12 12 13 15 15 14 16 17 18 18 18 19 20 20 20 20 20 20 19 19 19 19 18 18
34 34 31 29 26 22 18 14 13 12 11 9 6 6 5 4 5 5 9 11 12 13 13 13 15 17 17 18 18 18 19 19 19 19 19 19 18 19 19 19 19 19 19
35 33 31 28 25 20 18 16 14 12 10 8 7 7 5 5 3 4 8 10 11 12 12 14 16 17 17 17 18 18 18 18 19 19 19 19 19 20 20 20 20 20 20
36 33 30 27 24 21 19 16 13 11 10 9 9 7 7 4 1 4 6 8 9 10 12 15 15 16 16 16 16 17 17 18 19 19 20 20 21 22 22 22 22 21 21
35 32 29 26 23 19 17 14 12 12 11 10 10 9 7 3 1 2 5 6 7 9 11 13 13 14 14 14 15 16 17 18 19 19 20 21 22 23 24 25 24 24 25
35 32 29 25 22 19 16 15 14 12 12 12 11 10 7 4 3 3 3 4 6 9 10 12 12 12 12 13 14 15 16 18 18 19 20 21 23 24 25 26 26 26 26
35 31 28 25 22 19 16 15 13 13 13 12 12 10 7 5 4 3 3 3 5 8 9 9 10 10 11 12 13 15 16 17 19 20 21 22 23 24 26 27 28 26 24

GFSGL_700_spd_162.txt.gz
Wind_Speed
8 11 13 14 16 17 17 19 20 22 25 26 26 25 22 20 17 16 17 15 14 19 16 17 23 40 32 40 36 30 27 33 41 39 25 25 26 28 30 34 28 25 25
8 10 12 14 16 19 16 14 16 19 21 26 28 33 32 30 25 23 19 17 16 17 19 10 18 29 34 24 24 16 13 15 13 15 21 23 27 34 37 31 26 26 26
7 7 10 12 12 9 7 7 6 7 1 5 7 7 18 25 27 25 21 18 13 19 16 20 16 33 32 17 12 16 16 15 16 20 25 21 21 23 23 27 30 26 28
7 6 8 5 4 7 3 2 1 3 8 8 9 16 14 14 15 13 13 14 9 12 12 15 17 20 7 12 17 8 15 15 16 16 20 21 22 23 24 25 25 27 29
8 5 6 5 8 6 5 4 6 5 6 7 16 12 10 15 15 12 13 8 12 17 10 12 12 10 17 16 13 17 20 16 17 17 19 21 21 26 29 30 31 30 30
9 4 5 7 10 7 6 6 3 8 11 12 9 9 12 11 11 8 11 14 7 6 4 4 4 5 3 6 6 8 11 14 14 17 22 26 24 23 23 24 25 26 29
10 6 6 8 9 9 8 6 10 13 15 14 12 13 14 16 13 12 15 7 9 10 7 7 12 11 7 9 9 10 13 13 14 15 17 18 20 21 22 23 24 25 27
12 8 7 9 10 11 9 8 11 12 12 9 8 10 8 8 9 9 10 8 10 8 5 4 7 4 1 4 6 8 11 14 16 18 19 19 20 21 22 23 24 26 27
13 10 10 10 10 12 10 10 11 11 16 13 11 11 11 9 9 10 11 11 10 9 7 6 5 3 3 4 8 14 16 16 17 18 19 20 22 23 24 25 25 27 28
15 13 12 12 12 13 12 13 13 15 14 15 15 15 16 14 14 14 13 11 10 8 6 5 3 3 6 10 16 18 16 16 16 17 19 19 20 20 21 22 24 26 27
16 15 14 15 15 15 14 15 15 16 16 16 15 15 16 15 12 12 10 8 6 5 3 3 5 8 12 17 17 16 17 19 19 20 20 20 21 21 22 22 23 24 25
19 17 15 17 17 17 17 16 18 17 17 16 15 14 14 13 12 9 8 6 4 3 5 7 10 13 17 16 16 18 19 19 18 18 18 19 20 21 22 22 22 23 23
20 19 19 20 20 19 19 18 17 17 16 14 13 12 10 9 7 6 5 3 3 5 7 10 13 13 14 16 19 19 19 18 18 20 20 21 21 22 23 23 23 23 23
21 21 22 23 22 22 22 21 17 14 13 12 10 9 8 6 5 4 3 3 5 8 10 11 13 14 16 18 19 18 18 19 19 20 22 23 23 23 23 23 22 22 21
23 25 25 25 24 24 23 21 18 15 14 12 10 8 7 5 4 3 3 5 8 9 10 12 14 16 18 18 18 18 18 19 20 21 21 22 22 22 21 20 20 19 19
25 28 28 27 27 26 22 18 15 14 11 9 8 8 5 4 3 2 3 7 8 8 10 12 15 16 17 17 17 17 19 19 19 20 21 21 20 20 19 18 17 17 17
26 28 29 28 28 25 22 18 13 11 10 10 8 6 5 3 1 1 5 6 7 9 11 14 16 16 16 16 18 18 18 19 19 20 20 20 20 19 19 18 17 16 17
28 29 29 29 28 25 23 20 17 14 10 8 8 7 5 4 2 1 3 6 8 10 13 15 15 15 16 16 16 17 18 18 19 19 20 20 19 19 18 18 18 18 18
31 32 31 30 28 26 23 21 17 13 11 9 8 6 5 4 2 0 3 6 8 11 13 14 14 15 15 15 15 16 17 18 19 20 20 19 19 19 19 19 19 19 19
34 34 33 31 30 27 24 21 16 13 11 11 9 7 5 3 2 1 2 5 8 11 12 13 14 14 14 14 14 15 16 17 18 19 19 19 19 19 19 19 19 19 20
36 36 34 32 30 26 23 18 15 13 13 11 9 8 6 5 4 2 3 5 8 9 10 12 13 13 13 13 14 15 16 16 17 18 18 19 20 20 21 21 21 22 22
39 38 36 33 30 26 23 19 16 15 14 12 10 8 7 7 6 4 3 4 6 8 10 12 12 13 12 13 14 15 16 17 17 18 19 19 20 21 23 23 23 23 23
41 38 35 32 30 26 23 21 18 16 14 12 11 9 8 9 7 5 2 3 5 7 9 11 12 12 12 13 14 15 16 17 18 19 19 20 21 23 24 25 25 25 24
41 38 34 32 28 25 23 20 18 16 15 13 12 11 10 10 7 5 2 2 4 6 8 10 11 10 11 12 13 14 15 17 18 19 20 21 22 23 24 25 26 26 25
41 39 34 31 27 24 22 20 19 16 15 14 13 12 12 10 8 6 2 2 4 6 8 9 10 10 10 11 12 13 15 17 19 20 21 22 23 24 25 26 27 27 25
42 38 34 31 28 24 22 20 17 16 15 15 14 14 13 12 9 6 4 3 4 5 7 9 9 9 9 10 11 12 14 17 19 20 22 23 24 25 25 27 29 30 27

GFSGL_700_spd_168.txt.gz
Wind_Speed
17 14 14 13 13 13 11 12 14 16 18 19 19 20 20 17 15 13 13 12 13 14 16 14 15 9 17 16 30 25 23 15 13 17 15 19 21 26 26 26 28 29 30
14 14 13 12 13 11 12 13 16 18 18 19 21 24 24 22 21 19 16 11 11 12 11 14 16 15 11 15 25 27 22 12 11 16 21 22 20 23 31 37 33 35 37
13 12 11 10 10 10 12 14 15 11 9 9 13 15 22 28 27 23 18 13 13 13 13 14 18 15 17 15 21 23 10 13 12 10 8 10 12 12 18 21 24 24 23
12 9 9 9 8 6 4 6 5 4 3 3 9 11 9 22 26 23 20 20 20 17 19 16 14 12 11 9 22 12 16 16 9 10 11 14 14 20 19 20 22 24 27
11 9 8 7 5 6 5 5 8 6 4 6 7 9 11 13 21 25 25 24 20 15 18 15 12 8 10 5 9 12 14 11 12 12 14 15 17 18 20 23 24 24 27
11 9 8 6 7 6 3 5 8 5 7 7 9 8 10 12 10 9 8 10 13 4 6 5 8 10 9 9 8 6 6 11 10 11 12 14 16 19 21 23 25 26 28
10 9 8 7 9 7 4 5 9 5 5 2 4 8 12 8 8 9 7 15 13 12 9 11 10 9 6 3 1 1 3 6 10 14 17 18 19 20 22 24 25 27 30
11 10 8 9 11 10 6 11 11 9 6 10 10 8 13 14 16 13 12 11 9 8 6 4 6 2 2 3 2 4 8 12 14 14 16 18 19 21 23 24 26 27 29
11 11 9 11 12 12 10 15 14 10 9 9 10 11 11 11 11 9 8 8 5 7 9 9 7 4 3 2 6 10 11 11 13 15 18 20 21 22 23 23 24 26 28
11 11 10 12 14 13 12 13 18 12 11 12 8 9 10 15 9 12 13 14 12 10 9 7 5 4 6 8 9 9 11 13 15 15 16 17 18 19 20 23 24 25 25
12 13 12 13 15 14 12 12 13 17 13 13 11 13 15 15 15 15 14 12 10 8 6 4 4 6 8 9 9 11 12 13 14 15 16 18 20 21 21 22 24 24 25
13 14 14 14 16 15 13 13 13 13 15 15 15 15 16 15 14 13 11 10 7 4 2 4 6 7 7 10 12 12 12 13 14 16 18 19 22 24 24 25 25 25 24
14 16 16 16 17 17 16 14 14 15 15 15 16 15 13 13 11 9 7 5 3 2 4 5 6 7 9 10 11 12 13 15 16 18 19 20 21 22 23 23 22 22 21
14 17 19 18 18 19 18 17 16 16 16 15 15 13 11 10 8 6 4 3 1 3 4 5 7 9 9 10 12 13 14 15 17 19 20 20 20 20 21 20 19 19 19
16 18 20 20 21 21 21 21 19 18 17 15 13 12 9 7 6 5 2 1 3 4 6 7 8 9 11 12 12 13 14 15 17 19 20 19 19 20 19 19 19 19 19
16 19 21 22 22 21 21 21 21 18 16 16 13 10 7 7 5 3 0 2 4 5 6 7 8 10 11 12 13 14 15 17 18 19 19 19 19 19 20 20 20 20 20
16 18 23 24 23 22 22 21 18 17 16 14 13 10 9 7 5 2 0 3 4 5 6 7 9 11 13 13 14 16 17 18 20 20 20 20 21 21 21 21 21 21 22
17 19 23 24 24 24 24 21 18 15 12 11 11 10 9 7 5 3 1 2 3 5 6 8 10 13 15 16 17 18 19 21 21 21 21 21 22 22 23 23 24 24 23
19 21 24 26 26 26 25 23 20 18 15 12 10 9 9 7 5 4 1 2 4 5 7 9 13 15 16 17 17 18 18 20 21 21 21 22 23 24 25 25 26 26 27
21 21 24 28 29 29 27 25 22 19 15 13 12 11 8 7 5 4 1 2 3 5 7 10 13 15 16 17 18 18 18 20 22 22 24 24 25 26 26 27 28 28 28
24 25 26 30 30 30 28 25 22 17 15 13 12 11 10 8 6 4 1 2 3 5 7 10 13 15 16 17 17 16 18 21 23 24 25 26 27 27 28 29 30 32 32
28 27 27 32 32 32 31 27 23 18 16 14 13 11 9 7 7 5 2 2 3 4 7 11 13 14 15 16 17 18 20 22 23 24 26 27 28 29 30 31 33 34 34
30 29 28 33 34 34 32 29 24 20 17 15 13 11 8 7 7 5 3 3 2 4 8 10 12 14 15 16 18 19 21 22 24 25 25 27 29 31 32 33 35 36 36
32 31 31 35 36 35 33 30 25 22 19 16 14 12 10 9 8 6 4 3 1 4 7 10 12 14 15 17 19 20 21 22 23 24 26 28 30 32 34 35 36 36 34
35 34 33 36 36 36 34 31 27 23 19 17 16 14 11 9 8 7 5 3 1 3 6 9 12 14 15 17 18 19 20 21 22 24 26 28 31 33 35 36 36 35 34
36 35 34 37 38 37 35 31 27 23 20 18 17 14 12 11 10 8 6 4 1 3 6 10 12 13 14 15 17 18 19 20 21 24 26 28 30 32 34 35 35 35 35

GFSGL_700_spd_171.txt.gz
Wind_Speed
21 19 18 17 15 14 13 15 14 14 13 14 16 17 17 17 15 12 12 12 11 11 11 11 8 13 12 12 7 16 18 15 11 14 15 15 18 21 22 21 24 26 28
17 17 16 16 15 14 15 16 15 14 15 17 19 21 22 21 20 16 13 11 9 11 10 9 12 13 10 12 11 19 22 14 7 15 16 13 21 22 25 23 25 27 29
17 16 15 14 13 13 14 14 14 12 11 11 13 17 18 21 24 21 16 12 11 12 10 10 10 14 16 13 11 15 24 10 7 7 10 10 12 13 12 14 19 19 20
16 14 13 12 12 11 10 6 3 5 6 3 8 4 10 12 23 23 18 14 17 14 14 15 15 14 8 6 9 19 14 6 7 10 11 12 13 15 17 21 20 24 24
15 14 12 11 10 9 8 4 9 6 4 3 8 8 7 3 18 22 22 20 15 15 19 16 11 13 11 6 9 9 7 13 6 10 11 12 14 16 19 20 20 22 23
15 13 11 10 9 11 6 6 10 8 8 7 10 12 13 8 12 14 14 14 13 9 13 12 8 7 9 8 8 11 13 6 7 9 10 12 14 17 19 20 22 24 24
14 13 12 10 10 11 7 10 9 6 9 8 10 10 10 14 14 14 9 9 7 8 12 13 11 12 9 6 4 3 0 4 7 12 14 15 16 18 19 21 23 25 26
14 13 12 10 13 12 8 16 11 11 13 9 10 12 11 18 15 14 13 13 11 6 9 10 11 9 7 6 3 1 6 10 11 12 14 16 18 19 20 22 24 25 26
12 13 11 12 15 13 14 17 12 14 9 12 10 11 10 15 14 14 9 9 9 11 13 13 10 7 5 3 6 9 9 10 13 14 15 16 17 18 20 22 24 26 28
12 13 12 14 16 16 17 18 14 12 9 9 10 12 12 7 14 14 13 16 14 12 10 8 5 2 3 6 7 8 11 12 14 15 16 17 18 20 21 23 24 25 26
12 13 14 16 17 17 18 20 16 14 13 11 9 13 15 15 15 16 16 13 11 8 6 5 4 4 4 5 8 10 11 11 12 13 14 16 18 19 20 21 21 22 22
12 14 15 17 18 17 18 19 19 15 11 14 16 17 19 18 17 14 12 10 7 5 4 3 4 6 8 9 9 10 10 11 12 13 16 19 20 20 20 21 21 21 20
13 15 17 18 18 16 16 16 16 17 18 16 17 17 17 16 13 11 8 6 4 3 3 4 6 8 9 10 10 11 11 12 13 15 17 19 20 21 22 22 22 21 20
13 16 18 18 19 18 17 18 19 20 20 19 17 16 15 13 11 8 5 4 3 2 4 5 8 9 10 11 11 11 11 13 15 17 19 19 19 20 21 21 20 20 21
14 17 18 19 19 18 18 21 22 22 22 18 17 15 11 8 6 5 4 3 2 3 4 7 8 9 10 10 9 10 13 15 17 19 19 20 21 22 22 23 23 23 22
14 18 18 20 19 20 20 22 25 23 22 20 17 13 9 9 6 4 2 2 2 3 5 7 8 9 9 9 11 12 13 15 18 20 21 21 22 22 23 24 24 25 24
13 16 20 20 20 20 22 22 21 22 21 18 15 13 12 8 5 3 2 2 3 5 6 6 7 8 9 10 12 13 15 19 21 21 22 23 23 25 25 26 27 26 26
12 15 18 20 22 23 24 22 20 17 15 14 14 13 10 8 6 3 3 2 3 4 4 6 8 9 10 12 14 16 18 20 22 23 23 24 26 27 28 29 29 30 30
13 16 20 21 24 25 25 23 21 19 17 13 11 10 9 8 6 4 3 2 3 4 4 7 8 10 12 14 16 17 19 21 22 23 25 27 28 30 30 31 31 32 32
15 14 18 23 26 27 27 25 22 20 18 15 13 10 7 6 5 4 2 1 3 3 5 7 9 12 14 15 16 17 19 21 23 25 26 28 29 31 32 33 34 34 34
20 18 19 25 28 28 27 25 23 20 17 15 14 12 11 9 7 5 3 1 2 3 5 7 10 13 14 15 16 18 20 21 23 25 26 28 30 32 34 35 36 35 34
25 22 19 25 30 31 29 27 24 21 18 16 15 13 11 8 8 6 4 1 1 3 6 8 10 11 13 14 16 18 19 21 23 24 27 29 31 34 35 35 34 35 34
23 26 22 24 32 33 32 30 26 23 19 17 15 13 10 8 8 7 5 2 1 3 6 7 8 10 12 14 16 18 19 21 22 24 27 29 32 34 34 33 34 34 33
23 27 25 25 33 36 34 32 28 25 21 18 16 14 13 11 9 7 5 3 0 2 5 7 7 10 12 13 15 17 18 20 22 24 26 29 32 33 32 32 33 32 32
24 26 27 27 32 37 36 34 30 26 23 19 17 15 14 12 10 8 6 3 1 1 4 5 7 10 11 13 15 16 18 20 22 24 26 29 30 31 29 29 30 31 31
24 28 30 29 33 37 38 34 31 27 23 20 18 16 15 13 11 10 7 5 2 1 3 5 7 9 10 11 13 15 18 20 22 24 26 28 29 28 26 26 28 28 28

GFSGL_700_spd_174.txt.gz
Wind_Speed
31 29 26 23 19 18 16 16 15 15 15 15 16 16 16 16 15 13 12 11 10 11 10 10 10 9 14 16 12 8 7 9 9 11 12 12 14 15 22 24 22 25 26
26 25 23 20 18 17 17 16 16 17 17 18 18 17 18 18 17 17 13 11 11 9 9 10 10 12 11 12 10 5 12 15 11 5 11 13 12 16 16 21 18 24 26
23 22 19 18 17 16 16 15 16 17 18 18 15 15 16 18 20 20 17 14 11 11 9 8 9 10 14 9 10 9 9 17 16 5 5 9 12 13 16 17 17 18 23
20 19 18 16 15 14 13 13 14 12 9 7 7 13 15 16 17 21 19 15 16 15 13 10 13 11 12 12 11 5 11 19 10 6 13 9 13 13 16 17 19 23 26
19 17 16 14 13 12 10 8 9 9 6 4 8 1 8 10 16 20 21 19 17 15 16 16 18 10 10 11 3 10 16 11 9 10 8 13 16 17 17 18 20 20 22
18 18 16 14 12 10 10 10 12 10 7 1 5 7 8 10 14 12 17 15 14 15 16 7 6 4 3 8 9 5 3 8 13 10 10 12 14 16 17 19 20 21 23
18 18 16 14 11 13 11 12 13 12 8 6 9 11 15 15 12 11 10 9 7 1 5 8 9 10 10 8 5 5 6 6 7 11 13 13 15 17 19 21 23 24 24
18 17 15 14 13 15 10 14 8 7 11 10 12 13 15 18 16 7 12 10 7 7 10 10 9 10 9 7 3 1 5 9 10 11 13 15 17 19 20 21 22 23 24
17 17 16 14 16 15 14 17 17 11 15 11 17 16 13 16 16 16 11 11 11 12 14 13 10 7 4 3 4 6 7 9 11 12 12 13 15 17 21 24 25 27 27
16 17 16 17 18 15 19 17 16 13 13 16 14 11 12 19 16 10 16 15 13 12 11 8 4 2 3 5 6 9 10 11 11 12 14 16 19 21 23 26 27 27 27
16 18 18 20 20 19 21 18 16 12 12 11 14 12 11 15 17 17 17 14 12 8 5 4 3 5 7 8 10 11 11 11 13 15 16 18 20 22 22 22 23 24 24
16 19 20 21 23 22 23 19 16 14 14 9 14 18 20 18 17 15 12 10 7 5 4 3 3 5 6 7 8 9 10 11 12 14 16 19 20 20 21 22 23 24 24
17 20 21 22 24 23 25 22 18 16 14 15 17 18 18 16 13 12 9 7 5 3 3 4 6 6 9 10 10 11 11 12 13 16 18 19 19 21 22 24 26 27 28
16 21 21 21 22 22 22 21 20 19 21 21 19 18 16 14 12 9 6 5 3 3 4 5 7 10 10 10 11 11 11 12 15 17 18 19 21 23 25 26 26 27 28
16 20 21 21 21 20 21 20 22 24 24 21 19 17 12 10 8 6 5 3 3 2 4 5 9 10 10 10 10 10 11 14 16 17 19 20 22 24 26 27 28 29 29
14 21 21 21 22 21 23 26 28 28 27 27 23 19 14 12 8 5 3 3 2 4 4 7 9 10 10 10 10 11 13 15 17 19 21 22 24 25 26 28 29 30 30
12 18 21 21 23 22 24 26 26 27 27 23 20 17 16 11 7 4 3 3 3 4 5 8 10 10 10 9 10 12 13 15 17 20 22 23 24 26 29 30 32 32 32
13 15 18 21 23 24 25 25 24 21 19 19 19 16 13 11 7 4 3 2 4 4 6 8 9 9 9 9 10 12 14 16 18 20 22 24 27 29 31 32 34 35 34
10 18 21 22 25 27 27 26 24 22 19 16 13 12 11 9 6 4 3 3 3 5 7 8 8 8 8 10 12 12 14 17 19 21 24 27 29 30 31 33 35 36 36
11 15 22 23 27 28 29 27 24 22 19 16 13 11 8 7 6 5 3 3 3 6 6 7 7 7 8 11 11 12 15 17 20 23 26 28 29 29 31 33 35 35 35
12 11 22 23 27 28 28 26 24 21 19 17 16 14 13 10 7 6 3 2 3 5 6 6 7 7 9 10 11 13 15 18 21 24 27 28 28 28 30 31 33 35 34
17 14 15 25 27 29 28 27 25 22 20 18 17 15 12 9 8 6 4 2 2 4 5 6 7 8 9 10 11 13 16 19 22 24 27 28 27 26 28 29 30 32 34
21 18 17 22 28 30 31 29 26 24 21 19 17 14 11 8 7 7 5 3 1 3 4 6 7 7 8 9 11 14 17 20 22 25 27 27 25 25 26 27 28 30 32
18 23 22 20 28 31 32 31 28 26 23 19 17 15 13 11 9 8 6 4 2 2 4 5 6 7 8 10 12 14 17 20 22 24 26 26 25 24 26 27 28 30 31
11 17 24 24 24 32 33 33 30 27 24 20 18 17 15 12 10 9 8 5 3 0 3 4 5 7 8 9 11 13 16 19 21 24 26 25 24 24 25 27 28 29 30
17 15 20 24 27 30 35 34 32 29 25 21 19 18 15 12 12 12 9 7 4 1 2 3 5 6 7 8 10 13 15 18 20 23 25 25 24 23 24 26 28 29 30

GFSGL_700_spd_180.txt.gz
Wind_Speed
16 20 20 30 21 25 22 22 21 20 22 17 15 13 12 11 12 12 10 8 7 6 6 8 9 10 9 6 8 10 6 6 9 10 9 10 10 13 13 10 12 13 13
20 25 20 22 26 24 22 23 20 21 20 16 15 14 13 13 15 13 13 12 8 8 8 10 10 9 9 9 8 10 9 13 9 10 6 3 3 7 10 8 12 16 18
22 30 20 26 28 26 23 22 20 19 18 16 16 16 15 15 16 16 15 12 9 9 9 9 6 5 8 9 11 14 13 10 8 12 7 5 5 7 10 12 13 16 18
22 30 34 30 31 30 22 19 18 18 17 17 16 18 17 17 17 18 15 13 12 13 12 9 10 10 12 13 13 9 13 5 10 13 5 7 10 11 15 15 17 19 21
18 15 16 13 15 18 18 17 18 17 16 16 15 13 12 13 14 17 16 15 15 14 13 9 12 15 13 9 8 10 3 5 10 8 6 10 12 12 14 16 18 20 22
14 15 16 16 16 16 16 16 16 13 12 9 9 11 12 12 12 13 15 16 14 12 10 12 14 4 6 7 4 2 2 6 5 8 11 13 15 16 18 20 21 23 24
17 17 17 17 16 16 14 14 13 12 10 6 5 9 15 11 16 14 14 13 11 11 8 4 4 6 4 7 5 4 2 4 6 10 13 15 16 18 19 20 21 23 25
19 19 18 18 17 15 13 15 13 13 10 9 8 23 19 17 15 8 9 10 8 5 8 8 9 8 8 5 2 2 4 7 9 11 13 14 15 17 18 19 21 22 23
19 19 18 18 17 15 17 17 15 18 15 12 16 24 16 15 14 11 9 9 9 13 12 10 8 5 3 2 3 5 6 8 8 9 11 13 15 17 19 21 21 23 25
24 19 20 19 18 17 16 15 16 19 13 18 18 19 19 17 21 15 15 17 16 14 10 7 5 4 4 2 3 3 5 6 8 10 13 16 18 20 21 22 23 24 25
25 24 22 21 21 23 18 18 20 22 22 18 23 20 14 19 16 19 20 17 14 10 8 6 4 3 3 4 5 7 8 10 12 14 17 19 19 20 21 22 24 25 27
27 26 24 23 27 27 24 18 27 20 19 17 19 18 25 18 19 17 14 14 11 9 7 5 5 6 6 7 8 9 11 13 15 17 17 18 20 21 23 23 25 28 30
28 27 26 30 31 29 28 19 28 22 19 13 21 20 23 20 17 15 12 11 9 7 6 6 7 7 8 9 10 11 12 14 15 16 17 19 22 23 24 28 30 34 36
30 29 31 31 35 30 28 23 19 21 15 14 18 21 19 19 16 12 10 9 8 7 7 7 8 8 8 10 12 12 14 15 16 18 20 22 23 22 25 27 29 31 34
30 34 36 32 34 30 27 27 20 17 16 19 25 23 19 16 12 11 10 9 8 8 7 8 8 8 11 12 12 13 14 15 17 19 22 23 21 24 26 28 31 33 36
32 35 36 34 34 34 29 31 23 20 23 27 25 23 20 16 11 10 10 10 9 8 8 8 9 11 12 12 13 14 15 17 18 20 22 20 22 24 26 29 31 34 38
29 32 33 35 29 28 31 31 23 29 28 27 24 22 19 14 12 11 11 10 9 8 7 8 10 11 11 12 13 14 15 17 19 21 21 20 22 24 26 29 31 33 38
27 28 29 34 32 32 31 27 23 25 28 28 25 20 17 14 12 12 11 10 9 8 8 9 10 11 12 13 13 14 16 17 19 20 19 20 22 25 27 29 30 33 37
28 27 26 29 34 34 29 26 28 27 25 22 19 19 16 13 13 12 11 10 8 8 7 8 10 12 12 13 13 14 16 17 19 20 19 20 23 26 27 29 31 32 34
28 26 26 27 31 31 27 30 31 29 26 20 16 14 13 13 13 11 11 9 8 7 6 9 10 11 11 12 13 14 15 17 19 19 19 21 23 26 28 29 30 30 32
29 27 23 25 28 29 30 32 32 29 26 23 19 18 15 13 12 11 10 9 8 7 7 9 10 10 11 12 13 14 16 18 20 19 19 20 23 26 28 28 29 30 30
29 27 23 24 26 29 31 32 32 29 28 25 23 20 16 14 13 11 10 9 7 6 8 8 9 10 11 12 12 14 16 18 20 20 19 20 22 25 27 28 29 30 30
31 27 24 25 27 30 32 32 31 29 28 26 23 17 14 14 13 11 10 8 6 6 7 7 8 9 10 11 12 14 16 18 20 20 18 19 22 24 26 27 28 29 30
30 28 24 24 27 31 32 32 31 29 27 25 22 19 16 15 13 12 10 8 6 6 6 7 8 9 10 10 12 13 16 18 20 20 17 18 20 23 25 26 27 29 30
30 28 26 22 27 31 33 32 31 28 27 25 23 20 18 16 14 12 11 8 6 5 6 6 7 9 9 10 11 13 15 18 20 20 18 18 19 21 23 25 26 27 28
27 31 25 25 26 31 32 31 30 28 26 25 23 21 18 15 14 13 11 9 7 4 5 5 6 8 8 9 10 12 14 17 19 20 19 17 19 20 22 23 25 26 27

GFSGL_700_spd_183.txt.gz
Wind_Speed
14 18 23 26 26 24 26 18 16 16 14 15 15 14 15 14 12 11 10 7 6 5 5 6 7 7 7 6 6 4 8 4 8 12 11 12 10 12 13 14 13 14 10
11 14 19 24 23 29 23 16 16 16 15 16 15 14 15 15 13 13 11 10 8 6 8 9 8 6 6 8 9 8 11 14 10 11 9 5 4 7 8 7 9 12 13
11 15 20 25 23 16 16 16 16 16 16 16 15 14 16 15 14 14 13 11 10 10 10 10 4 4 5 7 7 10 11 13 12 10 11 5 5 7 9 12 12 12 15
12 17 21 21 17 15 17 17 14 17 17 16 15 15 17 16 15 14 13 12 12 13 11 9 8 9 9 12 11 10 8 9 8 8 8 5 8 12 14 16 15 16 19
14 19 19 27 17 22 19 24 19 18 17 14 14 15 18 17 17 17 14 12 13 10 11 11 10 13 13 6 8 6 6 2 5 7 6 10 9 12 15 15 17 19 21
16 15 9 14 14 14 17 18 17 16 14 13 13 15 15 15 15 13 12 12 13 12 11 11 12 6 4 3 1 3 5 6 8 5 12 12 14 15 16 18 19 21 23
13 13 12 18 15 14 15 14 15 13 11 11 11 13 12 15 16 12 13 14 11 9 8 7 1 5 4 5 7 5 3 3 5 9 12 14 16 16 18 19 21 23 24
11 13 14 13 14 14 14 13 13 13 12 9 10 14 18 21 17 15 17 16 12 8 4 6 7 9 6 3 0 4 5 7 9 11 12 14 15 16 17 19 20 20 20
15 17 16 15 15 15 14 15 16 15 11 6 18 22 18 20 16 20 11 9 7 12 11 8 6 4 2 1 2 4 6 7 8 9 10 12 14 15 16 17 19 21 22
22 17 16 18 18 16 18 18 20 19 13 13 24 20 25 23 19 15 12 13 15 14 10 7 4 3 3 2 3 3 5 6 8 10 12 14 15 17 18 19 19 20 23
26 20 17 19 19 21 22 19 22 21 14 24 21 20 16 16 17 17 19 20 16 11 9 6 5 4 2 3 4 6 8 10 11 13 15 16 17 18 18 19 22 25 27
30 26 20 22 23 23 23 22 25 22 23 23 27 25 16 15 18 21 19 17 13 11 8 7 5 4 5 6 8 9 10 12 13 15 16 18 18 17 20 22 26 28 29
29 25 26 26 28 24 26 25 25 17 16 22 21 14 20 19 20 18 16 15 12 11 9 7 6 6 8 8 9 12 13 13 14 16 17 18 17 20 24 28 30 32 35
30 27 30 31 31 28 25 29 24 24 18 19 19 24 21 21 17 15 14 13 12 10 8 7 7 8 9 10 12 12 12 13 15 17 18 17 20 23 25 27 28 30 34
28 33 33 37 34 32 27 31 29 26 16 14 26 23 21 18 17 16 14 13 11 10 9 8 9 9 10 11 11 11 13 14 17 18 17 19 22 24 25 27 28 30 34
33 35 39 39 34 33 28 30 24 19 20 24 23 23 22 16 14 15 14 13 11 10 9 9 9 9 11 11 11 12 13 15 18 17 18 20 22 24 26 27 28 30 34
35 39 39 37 35 37 32 32 28 26 28 29 26 24 19 15 15 15 15 13 11 10 9 9 9 11 11 11 12 13 14 17 18 17 18 20 22 25 26 27 27 29 32
38 36 35 36 35 34 32 27 18 16 29 30 29 23 19 16 16 16 15 13 12 9 9 9 10 10 11 12 12 13 15 18 17 16 18 20 23 25 25 26 27 28 30
36 38 35 32 30 37 33 27 19 25 27 27 25 23 19 18 17 16 15 13 11 10 9 9 10 11 11 12 12 14 16 18 16 16 18 21 24 26 26 27 28 28 28
31 29 33 34 26 28 31 26 23 28 28 23 19 17 16 17 16 15 15 12 11 10 8 9 10 11 11 12 13 14 16 17 16 16 18 21 24 25 26 27 28 28 28
32 30 30 31 30 30 24 22 30 31 27 23 20 19 18 17 16 16 15 12 11 9 9 9 10 11 11 12 13 14 16 17 16 16 18 20 23 25 26 27 28 28 27
29 28 29 30 31 30 27 30 34 32 30 26 25 21 19 18 17 16 14 13 11 9 9 9 10 11 11 11 13 14 16 18 17 16 18 20 23 24 26 26 27 28 28
29 28 30 29 29 30 28 35 35 34 31 29 25 20 18 17 17 16 14 13 10 9 9 9 10 11 11 11 12 14 16 18 17 16 17 19 22 23 24 25 26 27 28
29 27 24 24 29 31 33 36 36 33 30 27 24 20 18 17 17 16 14 12 10 9 9 9 9 10 10 11 12 14 16 17 17 16 17 19 21 22 23 25 26 27 27
29 29 24 23 27 33 37 37 35 32 29 26 24 22 20 19 18 16 14 12 10 8 8 8 9 9 10 11 12 14 16 17 18 17 16 18 19 21 22 23 24 26 26
31 28 27 25 28 32 35 35 34 31 28 26 24 21 19 18 17 16 14 12 10 8 8 8 8 9 10 10 11 13 16 17 18 18 17 17 18 19 21 21 22 23 25

GFSGL_700_spd_186.txt.gz
Wind_Speed
9 14 18 24 29 32 33 37 36 22 24 18 16 14 13 11 12 11 11 9 8 7 7 7 5 6 7 7 9 6 3 6 9 11 13 13 13 12 14 14 17 19 21
7 10 15 17 21 25 19 23 24 25 21 17 15 14 13 12 13 12 11 11 10 9 8 7 7 9 9 9 8 12 12 9 12 10 13 12 9 10 12 11 11 12 13
11 10 12 15 16 18 15 18 28 28 18 16 15 14 14 14 14 13 13 13 12 11 9 9 8 6 4 6 8 8 11 13 13 10 10 11 8 9 10 11 14 13 18
17 17 12 14 16 16 21 20 24 14 15 15 15 14 15 14 15 14 15 14 14 12 9 10 8 8 8 11 12 12 8 10 10 8 10 6 8 12 14 14 16 18 19
20 18 14 15 19 15 10 22 21 11 13 16 16 15 15 15 15 14 16 14 15 12 12 13 10 11 11 7 4 5 6 5 5 8 8 12 15 14 16 17 18 20 21
18 20 14 13 18 18 10 11 15 18 15 16 16 15 16 17 16 15 14 14 12 11 12 11 10 10 2 2 2 3 4 6 7 11 8 13 14 16 17 18 18 20 22
28 24 14 13 15 20 17 18 17 18 16 15 16 16 19 17 15 15 15 14 13 12 11 7 3 2 6 5 6 3 3 4 6 9 11 13 15 16 17 19 20 21 22
24 24 17 21 21 18 16 17 17 15 14 14 14 16 17 18 19 16 17 15 9 9 6 5 6 4 3 2 1 4 6 7 9 10 12 13 14 16 16 16 16 17 18
25 28 16 18 22 18 18 17 15 15 15 14 14 17 18 24 22 22 20 16 13 9 9 8 7 4 2 1 3 5 6 7 8 9 11 11 11 12 13 14 15 18 21
22 27 16 17 20 17 17 17 18 18 14 15 24 21 24 20 23 21 18 12 11 12 10 7 5 3 2 2 3 5 5 6 7 8 8 10 12 13 14 18 20 22 24
23 20 18 18 19 18 19 20 22 18 18 25 25 25 24 24 21 15 13 15 15 11 8 6 5 4 3 3 4 4 5 6 8 10 13 14 14 16 18 20 22 24 27
31 29 21 20 21 21 22 24 25 22 18 24 27 27 24 19 16 13 18 19 15 12 8 7 6 4 4 4 4 5 7 9 12 14 15 14 16 17 20 22 25 28 31
33 31 20 23 21 24 27 24 27 21 27 26 21 18 20 18 20 23 20 17 13 11 10 8 6 6 6 5 6 8 10 12 14 15 14 15 18 21 25 26 29 31 32
30 35 26 26 26 28 27 26 24 27 24 25 21 16 19 23 23 21 18 16 13 11 10 8 7 7 7 7 8 10 11 13 14 13 14 18 22 25 25 27 29 30 32
34 29 32 29 31 30 26 28 28 26 22 19 17 18 19 20 21 20 17 15 13 12 10 8 8 8 8 9 9 10 12 14 13 14 16 20 23 25 25 26 27 28 30
36 35 33 36 34 33 30 35 32 24 25 25 24 20 22 17 17 17 16 15 13 12 10 9 9 8 9 8 9 11 13 14 14 15 18 21 23 24 25 26 26 27 28
34 32 37 36 36 34 36 37 33 34 31 30 27 24 19 16 17 17 16 15 13 11 11 10 9 8 8 9 10 12 14 14 14 16 19 21 23 24 25 26 26 26 27
27 34 38 36 35 40 37 37 26 22 30 31 31 25 21 19 18 18 17 16 13 10 10 10 9 8 8 10 11 13 15 14 14 16 19 21 23 24 25 26 26 25 26
35 38 39 37 41 37 34 24 24 21 28 29 28 25 23 20 20 19 17 16 14 11 10 10 8 8 10 11 12 14 15 14 14 16 18 20 23 24 25 26 27 26 25
34 37 38 33 40 42 32 20 21 27 28 26 21 18 20 21 20 19 17 14 13 12 10 10 8 9 10 11 12 14 15 14 13 15 18 20 22 24 25 26 27 27 26
39 35 38 38 33 34 28 25 24 28 27 23 20 20 20 20 20 19 17 14 13 11 10 10 9 10 11 11 12 14 16 14 13 14 16 19 21 23 24 26 27 27 27
33 34 31 28 32 36 32 26 26 29 28 24 23 21 21 21 21 19 17 15 12 11 10 10 10 11 11 11 13 15 16 14 12 14 15 18 19 21 24 25 26 27 27
29 31 34 32 30 31 26 25 31 33 30 27 23 19 20 21 21 20 17 15 13 11 11 10 10 11 12 12 13 15 15 14 13 13 15 17 18 20 22 24 24 25 26
29 28 28 31 40 35 24 29 36 34 31 27 23 21 20 20 20 19 17 15 13 11 10 11 10 11 11 11 12 14 15 15 13 13 14 16 17 19 20 22 23 24 25
30 27 28 30 33 27 25 35 36 35 32 27 23 21 21 20 20 19 17 15 13 11 10 11 10 11 11 11 12 13 14 15 14 14 14 15 16 18 19 20 22 24 24
35 32 32 31 28 27 32 37 37 34 30 27 24 21 21 20 19 18 17 15 12 11 10 10 10 10 11 11 11 13 14 15 15 15 15 15 16 17 18 19 20 21 23

GFSGL_700_spd_189.txt.gz
Wind_Speed
5 13 27 21 29 35 33 31 31 32 30 22 23 18 17 16 15 12 11 11 9 7 7 6 5 4 7 6 7 10 8 7 8 10 11 12 14 12 13 14 14 17 22
19 7 14 20 20 21 22 24 25 27 28 33 22 17 16 15 14 13 12 12 11 9 8 6 6 7 7 7 8 9 11 14 15 12 12 12 11 11 11 13 13 14 15
10 14 9 11 14 16 19 20 23 10 26 20 28 20 20 16 14 14 14 15 13 11 8 8 8 8 5 5 7 9 12 13 11 10 9 9 10 8 11 14 14 17 21
14 13 10 9 15 15 16 16 19 17 17 25 19 18 17 16 15 15 15 15 13 11 9 8 10 5 8 9 11 12 11 8 7 7 8 10 7 11 17 18 18 19 21
22 18 15 12 15 15 12 8 7 16 27 18 19 18 17 15 15 14 16 15 13 11 9 9 11 8 11 9 2 2 5 3 3 8 11 14 14 14 16 18 20 20 21
23 22 18 14 15 17 15 7 15 15 13 15 18 19 19 17 14 13 13 13 12 10 10 13 9 11 6 5 1 4 5 5 8 8 12 12 14 16 17 18 18 20 22
26 22 20 12 11 16 19 15 5 17 14 13 17 17 17 17 17 16 14 12 12 11 11 10 6 2 4 4 4 2 3 5 7 9 11 13 14 16 17 17 17 18 18
28 23 20 14 18 17 15 12 10 16 16 17 17 18 17 18 18 17 16 14 12 9 9 6 5 5 3 1 2 4 6 7 9 10 12 13 14 15 15 16 16 17 18
25 21 19 16 20 16 14 13 17 16 17 19 18 18 20 20 19 16 19 18 12 8 6 8 7 5 2 1 3 5 6 8 9 10 11 11 13 13 13 15 18 20 22
20 21 21 16 20 20 13 16 17 17 18 18 17 17 19 23 23 22 18 13 11 7 10 9 6 4 2 3 4 5 7 8 9 9 10 11 11 13 16 18 19 20 23
21 24 25 20 18 18 18 17 18 19 18 20 20 25 26 27 25 22 22 11 13 12 10 7 5 4 4 3 4 5 6 7 9 10 10 12 15 18 20 20 22 25 28
29 32 29 20 20 21 20 20 20 17 20 24 31 25 29 30 25 24 17 17 16 12 9 7 6 5 4 3 4 5 7 9 10 11 13 16 18 20 20 22 25 26 27
33 32 27 21 22 21 23 24 22 21 27 28 27 28 24 26 20 15 19 18 14 11 9 8 7 4 4 5 6 7 10 11 11 13 16 18 20 21 22 25 27 28 30
31 33 27 22 27 25 23 30 23 22 22 28 32 24 19 18 13 21 20 17 14 12 11 8 6 5 6 6 7 10 11 11 12 15 17 19 21 22 25 27 28 28 30
32 32 28 26 29 26 25 29 27 21 24 22 20 16 17 21 23 20 18 16 14 14 11 8 6 7 7 8 10 11 11 12 13 15 18 20 22 23 26 27 27 27 28
38 35 28 30 28 30 31 30 30 24 29 27 22 20 23 21 20 19 18 17 16 13 10 8 8 8 8 9 10 11 12 12 13 16 18 21 23 23 26 27 26 26 27
40 37 34 29 30 31 30 23 37 36 30 27 25 23 20 18 19 18 17 17 15 12 11 9 9 9 9 10 11 12 12 12 13 16 19 21 22 23 26 27 26 26 27
34 35 35 32 29 30 32 34 37 36 36 35 32 25 22 20 19 18 18 16 14 11 10 10 10 10 10 11 12 13 12 12 14 16 18 21 22 23 25 27 26 26 27
34 36 34 32 33 29 38 34 34 32 32 32 33 30 26 23 21 20 18 17 15 11 10 11 10 10 10 12 12 12 12 12 14 16 18 20 22 22 24 26 27 26 27
33 31 35 35 34 36 43 29 29 29 31 30 26 23 24 23 21 20 17 15 14 12 11 11 10 10 11 12 12 12 11 12 14 15 17 19 21 22 23 25 26 27 27
29 34 33 34 34 39 34 28 26 32 28 26 22 22 22 22 21 20 17 15 13 12 12 11 11 10 11 12 12 12 12 12 13 15 17 18 20 22 22 24 26 27 27
33 32 33 38 41 36 27 27 31 32 29 25 22 23 24 22 21 19 17 15 13 12 12 11 11 10 11 12 12 12 12 12 13 14 16 17 19 21 22 23 24 26 27
32 34 34 35 43 35 26 27 33 32 29 25 20 19 22 22 21 19 18 16 14 13 12 11 11 10 11 12 12 12 12 13 14 14 16 17 18 19 21 22 23 24 25
34 26 28 31 45 37 30 28 33 33 30 25 21 20 20 21 20 19 17 16 14 13 12 12 11 10 11 12 13 13 13 14 15 15 16 17 18 18 19 21 22 22 23
33 27 32 29 41 37 32 29 35 35 31 26 22 21 21 21 20 19 17 16 15 13 12 11 11 10 10 12 13 13 14 15 15 15 16 16 17 18 18 19 21 22 22
30 33 36 33 34 29 26 32 36 34 30 27 23 21 21 20 20 19 17 15 14 13 12 11 11 11 10 11 12 13 14 15 15 16 16 16 17 18 18 19 19 20 21

GFSGL_700_spd_195.txt.gz
Wind_Speed
28 26 25 24 12 14 17 18 20 19 24 30 27 17 32 26 20 17 13 10 10 10 9 9 8 6 6 4 4 5 4 6 7 4 9 9 6 6 6 7 7 10 13
25 24 26 22 22 19 20 23 20 15 17 27 14 3 24 21 16 14 11 12 12 11 10 9 8 6 4 4 6 5 5 7 6 7 7 6 3 7 13 10 14 14 17
22 22 20 18 17 19 17 16 15 11 15 13 7 7 20 19 15 15 15 16 14 12 11 9 7 4 5 6 1 2 5 8 7 2 2 3 5 8 10 14 18 20 21
18 16 10 7 13 19 22 16 18 15 13 7 11 17 18 22 15 15 15 15 14 12 11 8 5 4 4 2 3 5 4 2 3 3 6 7 12 12 13 16 18 19 20
16 15 9 4 11 21 17 19 17 15 12 12 14 16 20 23 15 15 17 15 14 12 10 8 6 5 5 3 2 3 4 1 3 5 5 6 7 10 12 15 17 18 18
12 18 12 10 4 15 17 14 15 13 13 15 14 18 25 23 15 17 17 16 15 13 10 7 6 6 4 1 2 4 6 6 6 8 9 10 11 13 14 14 16 16 17
13 17 18 9 8 5 6 13 11 13 14 15 21 26 26 19 18 17 16 16 15 13 9 8 5 3 3 6 5 6 7 7 8 9 10 11 11 13 15 16 17 19 20
17 19 20 8 9 10 5 11 12 10 16 22 23 24 23 19 18 17 15 15 16 12 8 6 5 6 8 9 6 6 7 8 9 10 11 12 12 14 15 16 17 17 20
19 22 24 14 11 11 9 13 11 13 21 29 24 21 25 19 17 14 11 11 11 9 8 6 10 9 9 8 8 8 9 8 9 10 10 11 14 17 17 17 19 20 21
18 21 23 17 19 10 14 20 13 15 19 21 25 25 21 21 19 16 9 11 14 10 8 11 11 10 8 8 9 9 8 9 9 9 11 14 17 17 18 20 21 20 20
15 22 30 18 11 13 17 19 18 20 21 24 25 22 22 18 16 13 15 17 11 8 12 11 10 10 9 10 10 8 8 8 8 12 15 17 17 18 20 20 19 20 22
15 27 29 18 19 8 11 18 18 19 25 25 26 26 21 22 17 16 21 17 14 14 12 12 11 11 11 10 8 8 8 8 12 15 17 17 18 20 21 20 21 22 24
20 30 27 26 18 15 16 22 25 27 26 27 27 26 23 27 22 16 16 17 17 15 13 13 12 11 11 9 9 9 8 11 14 16 17 18 20 22 23 23 23 25 27
29 35 30 25 24 22 26 20 19 22 23 23 25 29 32 28 22 21 16 18 16 16 14 13 12 12 10 10 9 8 10 14 16 17 18 19 22 25 25 26 26 27 29
34 32 31 27 22 24 25 20 18 19 14 19 28 31 30 25 23 18 17 16 16 16 14 13 12 11 10 10 9 10 13 15 16 17 19 21 23 25 25 26 27 27 28
38 33 34 19 29 24 29 26 24 21 27 29 27 29 30 24 19 21 20 19 18 16 15 13 12 11 11 10 11 12 14 15 16 18 19 21 23 24 26 26 27 28 28
33 29 25 27 29 28 28 29 29 31 29 31 28 28 22 20 23 22 21 20 18 15 15 13 12 12 11 11 12 13 14 15 16 18 19 21 23 24 26 26 28 28 29
31 36 24 32 31 31 28 29 30 35 34 30 30 24 26 25 23 22 21 19 16 16 17 14 12 11 11 12 13 14 13 14 16 18 19 21 22 24 25 26 27 28 29
36 38 29 34 33 28 30 26 27 31 38 35 33 32 30 26 25 24 23 20 16 14 15 14 13 12 12 13 13 13 13 14 16 18 19 20 22 23 24 25 26 28 29
32 30 36 36 32 30 30 31 36 35 33 32 34 32 31 28 26 25 23 21 18 15 15 14 12 12 13 13 13 13 14 14 16 17 18 19 21 22 23 24 25 26 28
28 35 37 32 30 26 31 34 35 30 33 32 31 29 27 26 24 22 20 20 19 16 15 14 13 13 14 13 13 13 14 14 15 16 17 19 21 21 22 23 24 25 27
23 34 35 32 29 27 26 35 35 30 32 30 31 30 28 28 25 22 20 19 18 17 16 14 13 14 14 13 13 13 13 14 15 16 17 18 20 21 22 23 24 24 25
25 27 33 25 24 24 31 40 34 36 31 28 28 27 28 27 25 23 20 19 17 16 15 14 15 14 14 14 14 13 13 14 15 16 17 18 20 20 21 22 23 24 24
24 20 18 26 28 37 39 35 34 34 30 26 27 26 27 26 24 23 21 19 17 17 16 14 15 15 15 15 14 13 13 14 15 17 17 18 19 19 20 21 22 22 23
25 23 22 31 30 29 35 39 36 34 29 26 26 26 27 25 24 22 21 20 18 17 16 15 15 15 15 15 15 14 14 15 16 17 18 18 18 19 20 21 21 22 23
25 27 25 20 34 33 35 36 35 32 29 28 27 27 26 24 23 21 20 20 18 18 17 16 16 16 15 15 14 15 15 16 16 17 18 18 19 19 19 20 21 22 22